This is the latest recevied weather packets stored in our database for station/object G7UKK-10. If no packets are shown the sender has not sent any weather packets the latest 10 day(s).
| Time | Temp. | Humidity | Pressure | Rain* | Wind** | Luminosity | Snow |
|---|---|---|---|---|---|---|---|
| 1777821917 | 9.44° C | 97% | 1011.9 hPa | 0.76 mm | - | - | - |
| 1777821017 | 10° C | 97% | 1011.8 hPa | 0.76 mm | - | - | - |
| 1777820117 | 10° C | 97% | 1011.9 hPa | 1.27 mm | - | - | - |
| 1777819217 | 10° C | 97% | 1011.7 hPa | 1.02 mm | - | - | - |
| 1777818317 | 9.44° C | 97% | 1011.8 hPa | 1.02 mm | - | - | - |
| 1777817418 | 9.44° C | 97% | 1011.8 hPa | 0.25 mm | - | - | - |
| 1777816517 | 9.44° C | 97% | 1011.8 hPa | 0.25 mm | - | - | - |
| 1777815617 | 9.44° C | 97% | 1011.8 hPa | 0 mm | - | - | - |
| 1777814717 | 9.44° C | 97% | 1011.6 hPa | 0.25 mm | - | - | - |
| 1777813817 | 9.44° C | 97% | 1011.5 hPa | 0.25 mm | - | - | - |
| 1777812917 | 9.44° C | 97% | 1011.5 hPa | 0.25 mm | - | - | - |
| 1777812017 | 9.44° C | 97% | 1011.5 hPa | 0.76 mm | - | - | - |
| 1777811117 | 9.44° C | 97% | 1011.4 hPa | 0.51 mm | - | - | - |
| 1777810217 | 10° C | 97% | 1011.4 hPa | 1.02 mm | - | - | - |
| 1777809317 | 10° C | 97% | 1011.2 hPa | 0.76 mm | - | - | - |
| 1777808417 | 10° C | 97% | 1011.3 hPa | 0.51 mm | - | - | - |
| 1777807517 | 10° C | 97% | 1011 hPa | 0.25 mm | - | - | - |
| 1777806617 | 9.44° C | 97% | 1011.3 hPa | 0.51 mm | - | - | - |
| 1777805717 | 9.44° C | 97% | 1011.1 hPa | 0.51 mm | - | - | - |
| 1777804817 | 9.44° C | 97% | 1010.9 hPa | 0.51 mm | - | - | - |
| 1777803917 | 10° C | 97% | 1010.8 hPa | 1.27 mm | - | - | - |
| 1777803017 | 10° C | 97% | 1010.9 hPa | 1.52 mm | - | - | - |
| 1777802117 | 10° C | 97% | 1010.6 hPa | 1.27 mm | - | - | - |
| 1777801217 | 9.44° C | 97% | 1010.6 hPa | 1.02 mm | - | - | - |
| 1777800317 | 9.44° C | 97% | 1010.8 hPa | 1.02 mm | - | - | - |
* Rain latest hour (hover to see other rain measurements)
** Current wind speed in m/s (hover to see current wind gust speed)